(243430) = 2003 UZ208 = 2009 DQ1

Discovered at Dauban on 2009-02-16 by F. Kugel.

Orbit

Orbit type: Main Belt

Note: WebGL enabled browser required.

epoch2022-01-21.0
epoch JD2459600.5
perihelion date2021-04-08.74986
perihelion JD2459313.24986
argument of perihelion (°)218.72753
ascending node (°)234.55531
inclination (°)4.37646
eccentricity0.0653606
perihelion distance (AU)2.4339417
Tisserand w.r.t. Jupiter3.4
ΔV w.r.t. Earth (km/sec)9.8
semimajor axis (AU)2.6041506
mean anomaly (°)67.36975
mean daily motion (°/day)0.23453340
aphelion distance (AU)2.774
period (years)4.2
P-vector [x]-0.05577891
P-vector [y]0.93399598
P-vector [z]0.35290256
Q-vector [x]-0.99650586
Q-vector [y]-0.03006976
Q-vector [z]-0.07792228
absolute magnitude17.16
phase slope0.15
uncertainty0
referenceMPO 696083
observations used225
oppositions14
arc length (days)8192
first opposition used1999
last opposition used2022
residual rms (arc-secs)0.74
perturbers coarse indicatorM-v
perturbers precise indicator003Ek
first observation date used1999-11-17.0
last observation date used2022-04-22.0
computer namePan
JD of orbit computation2456819.608478
perihelion JD uncertainty (days)2.0809E-04
argument of perihelion uncertainty (°)6.6132E-05
ascending node uncertainty (°)4.6814E-05
inclination uncertainty (°)4.6827E-06
eccentricity uncertainty 3.7735E-08
perihelion distance uncertainty (AU)9.1294E-08
Minimum Orbit Intersection Distances (in AU)
for orbit epoch: 2458200.5, reference: MPO407801
Mercury2.13215
Venus1.72105
Earth1.45621
Mars0.845176
Jupiter2.35141
Saturn6.64847
Uranus15.6125
Neptune27.3027

Observations

230 total observations over interval: 1999 11 17.43323 – 2022 05 29.182051
These data are available for download (format description).

Date (UT) J2000 RA J2000 Dec Magn Location Ref
1999 11 17.43323 03 42 54.13 +19 27 52.5 20.4 V 691 – Steward Observatory, Kitt Peak-Spacewatch MPS 279701
1999 11 17.45547 03 42 52.81 +19 27 45.3 20.4 V 691 – Steward Observatory, Kitt Peak-Spacewatch MPS 279701
1999 11 17.47811 03 42 51.49 +19 27 38.1 20.5 V 691 – Steward Observatory, Kitt Peak-Spacewatch MPS 279701
1999 12 18.14483 03 18 10.60 +17 02 34.6 21.1 V 691 – Steward Observatory, Kitt Peak-Spacewatch MPS 279701
1999 12 18.16668 03 18 09.91 +17 02 30.1 21.2 V 691 – Steward Observatory, Kitt Peak-Spacewatch MPS 279701
1999 12 18.18907 03 18 09.20 +17 02 25.4 21.5 V 691 – Steward Observatory, Kitt Peak-Spacewatch MPS 279701
2003 09 27.40511 02 16 29.61 +17 13 42.7 21.4 V 691 – Steward Observatory, Kitt Peak-Spacewatch MPS 279701
2003 09 27.43337 02 16 28.74 +17 13 37.4 21.5 V 691 – Steward Observatory, Kitt Peak-Spacewatch MPS 279701
2003 09 27.46081 02 16 27.87 +17 13 32.1 21.3 V 691 – Steward Observatory, Kitt Peak-Spacewatch MPS 279701
2003 10 23.17118 01 57 36.15 +15 04 30.2 20.5 V 291 – LPL/Spacewatch II MPS 89847
2003 10 23.17517 01 57 35.93 +15 04 28.7 20.5 V 291 – LPL/Spacewatch II MPS 89847
2003 10 23.17911 01 57 35.72 +15 04 27.3 20.5 V 291 – LPL/Spacewatch II MPS 89847
2003 10 24.27492 01 56 37.71 +14 57 20.8 20.4   704 – Lincoln Laboratory ETS, New Mexico MPS 89847
2003 10 24.28690 01 56 37.02 +14 57 14.4 20.5   704 – Lincoln Laboratory ETS, New Mexico MPS 89847
2003 10 24.29909 01 56 36.36 +14 57 09.8 20.3   704 – Lincoln Laboratory ETS, New Mexico MPS 89847
2007 09 09.41450 00 37 02.46 +09 53 07.6   691 – Steward Observatory, Kitt Peak-Spacewatch MPS 279701
2007 09 09.43214 00 37 01.77 +09 53 03.6   691 – Steward Observatory, Kitt Peak-Spacewatch MPS 279701
2007 09 09.44975 00 37 01.08 +09 52 59.4   691 – Steward Observatory, Kitt Peak-Spacewatch MPS 279701
2007 09 19.41802 00 29 57.47 +09 05 59.2 20.8 V 691 – Steward Observatory, Kitt Peak-Spacewatch MPS 279701
2007 09 19.43325 00 29 56.72 +09 05 54.1 20.3 V 691 – Steward Observatory, Kitt Peak-Spacewatch MPS 279702
2007 09 19.44849 00 29 56.01 +09 05 48.9 20.6 V 691 – Steward Observatory, Kitt Peak-Spacewatch MPS 279702
2007 10 14.28316 00 09 54.82 +06 23 33.8 20.6 V G96 – Mt. Lemmon Survey MPS 279702
2007 10 14.29148 00 09 54.43 +06 23 30.7 20.7 V G96 – Mt. Lemmon Survey MPS 279702
2007 10 14.29980 00 09 54.07 +06 23 26.9 20.5 V G96 – Mt. Lemmon Survey MPS 279702
2007 10 14.30850 00 09 53.67 +06 23 23.4 20.6 V G96 – Mt. Lemmon Survey MPS 279702
2009 02 03.33810 09 02 07.87 +09 25 40.9 20.1 V G96 – Mt. Lemmon Survey MPS 278813
2009 02 03.34577 09 02 07.40 +09 25 42.7 20.1 V G96 – Mt. Lemmon Survey MPS 278813
2009 02 03.35349 09 02 06.97 +09 25 44.4 20.4 V G96 – Mt. Lemmon Survey MPS 278813
2009 02 03.36102 09 02 06.54 +09 25 45.9 20.3 V G96 – Mt. Lemmon Survey MPS 278813
2009 02 16.86228 08 50 02.02 +10 20 41.6 20.3   A77 – Observatoire Chante-Perdrix, Dauban MPS 277737
2009 02 16.89483 08 50 00.40 +10 20 49.6 20.6   A77 – Observatoire Chante-Perdrix, Dauban MPS 277737
2009 02 16.92735 08 49 58.75 +10 20 58.6 20.7   A77 – Observatoire Chante-Perdrix, Dauban MPS 277737
2009 02 19.92032 08 47 37.29 +10 33 31.8 20.3 R A77 – Observatoire Chante-Perdrix, Dauban MPS 277737
2009 02 19.92839 08 47 36.92 +10 33 33.2 20.4 R A77 – Observatoire Chante-Perdrix, Dauban MPS 277737
2009 02 19.94455 08 47 36.14 +10 33 38.0 20.3 R A77 – Observatoire Chante-Perdrix, Dauban MPS 277737
2009 02 19.95259 08 47 35.71 +10 33 39.3 20.5 R A77 – Observatoire Chante-Perdrix, Dauban MPS 277737
2009 02 19.96875 08 47 34.92 +10 33 43.1 20.5 R A77 – Observatoire Chante-Perdrix, Dauban MPS 277737
2009 02 19.97681 08 47 34.60 +10 33 45.6 20.3 R A77 – Observatoire Chante-Perdrix, Dauban MPS 277738
2009 02 23.90405 08 44 45.52 +10 49 59.4 20.3 R A77 – Observatoire Chante-Perdrix, Dauban MPS 278813
2009 02 23.92829 08 44 44.51 +10 50 04.3 20.2 R A77 – Observatoire Chante-Perdrix, Dauban MPS 278813
2009 02 23.95251 08 44 43.50 +10 50 10.2 20.3 R A77 – Observatoire Chante-Perdrix, Dauban MPS 278813
2009 02 24.89509 08 44 06.10 +10 53 59.0 20.6   A77 – Observatoire Chante-Perdrix, Dauban MPS 278813
2009 02 24.91927 08 44 05.08 +10 54 05.3 20.5   A77 – Observatoire Chante-Perdrix, Dauban MPS 278813
2009 02 24.94349 08 44 04.10 +10 54 11.0 20.7   A77 – Observatoire Chante-Perdrix, Dauban MPS 278813
2010 06 13.28061 16 02 03.30 -18 54 52.9 20.6 V G96 – Mt. Lemmon Survey MPS 331980
2010 06 13.28651 16 02 03.01 -18 54 51.7 21.0 V G96 – Mt. Lemmon Survey MPS 331980
2010 06 13.29242 16 02 02.68 -18 54 49.9 20.8 V G96 – Mt. Lemmon Survey MPS 331980
2010 06 13.29838 16 02 02.43 -18 54 49.1 21.1 V G96 – Mt. Lemmon Survey MPS 331980
2010 06 18.23954 15 58 23.05 -18 38 40.7 20.9 V G96 – Mt. Lemmon Survey MPS 331980
2010 06 18.24612 15 58 22.76 -18 38 39.5 21.8 V G96 – Mt. Lemmon Survey MPS 331980
2010 06 18.25270 15 58 22.51 -18 38 38.3 20.8 V G96 – Mt. Lemmon Survey MPS 331980
2010 06 18.25928 15 58 22.22 -18 38 37.1 20.8 V G96 – Mt. Lemmon Survey MPS 331980
2011 08 30.99282 23 02 29.83 +01 03 42.3 20.2   A77 – Observatoire Chante-Perdrix, Dauban MPS 391016
2011 08 31.01316 23 02 28.79 +01 03 36.4 20.8   A77 – Observatoire Chante-Perdrix, Dauban MPS 391016
2011 08 31.03350 23 02 27.72 +01 03 31.0 20.8   A77 – Observatoire Chante-Perdrix, Dauban MPS 391016
2011 08 31.47842 23 02 06.025 +01 01 15.15 21.0 g F51 – Pan-STARRS 1, Haleakala MPS 391016
2011 08 31.48963 23 02 05.466 +01 01 11.50 21.1 g F51 – Pan-STARRS 1, Haleakala MPS 391016
2011 09 20.18808 22 46 02.38 -00 54 18.7 20.6 V G96 – Mt. Lemmon Survey MPS 392459
2011 09 20.19451 22 46 02.10 -00 54 21.3 20.8 V G96 – Mt. Lemmon Survey MPS 392459
2011 09 20.20135 22 46 01.77 -00 54 23.8 20.4 V G96 – Mt. Lemmon Survey MPS 392459
2011 09 20.20777 22 46 01.48 -00 54 26.2 20.6 V G96 – Mt. Lemmon Survey MPS 392459
2011 09 20.33319 22 45 55.819 -00 55 11.39 21.0 w F51 – Pan-STARRS 1, Haleakala MPS 392459
2011 09 20.34828 22 45 55.109 -00 55 16.95 20.9 w F51 – Pan-STARRS 1, Haleakala MPS 392459
2011 09 20.36347 22 45 54.395 -00 55 22.63 21.0 w F51 – Pan-STARRS 1, Haleakala MPS 392459
2011 09 20.37868 22 45 53.679 -00 55 28.16 21.0 w F51 – Pan-STARRS 1, Haleakala MPS 392459
2011 09 24.25620 22 43 05.44 -01 19 07.0 21.0 V G96 – Mt. Lemmon Survey MPS 394097
2011 09 24.26146 22 43 05.19 -01 19 08.6 20.8 V G96 – Mt. Lemmon Survey MPS 394097
2011 09 24.26674 22 43 04.98 -01 19 10.1 20.3 V G96 – Mt. Lemmon Survey MPS 394097
2011 09 24.27193 22 43 04.76 -01 19 12.6 20.8 V G96 – Mt. Lemmon Survey MPS 394097
2012 12 10.40004 07 43 51.36 +16 18 22.0 20.7 V 691 – Steward Observatory, Kitt Peak-Spacewatch MPS 447576
2012 12 10.41771 07 43 50.77 +16 18 20.9 20.8 V 691 – Steward Observatory, Kitt Peak-Spacewatch MPS 447576
2012 12 10.43538 07 43 50.22 +16 18 19.3 21.0 V 691 – Steward Observatory, Kitt Peak-Spacewatch MPS 447576
2013 01 05.30167 07 23 03.12 +16 08 28.2 20.4 V G96 – Mt. Lemmon Survey MPS 450761
2013 01 05.30751 07 23 02.72 +16 08 28.3 20.1 V G96 – Mt. Lemmon Survey MPS 450761
2013 01 05.31337 07 23 02.36 +16 08 28.6 20.0 V G96 – Mt. Lemmon Survey MPS 450761
2013 01 05.31924 07 23 01.93 +16 08 28.7 19.2 V G96 – Mt. Lemmon Survey MPS 450761
2014 04 23.37885 15 02 47.73 -18 42 07.6 21.6 V W84 – Cerro Tololo-DECam MPS 512230
2014 04 23.38208 15 02 47.57 -18 42 06.6 21.6 V W84 – Cerro Tololo-DECam MPS 512230
2014 04 23.38535 15 02 47.41 -18 42 05.7 21.6 V W84 – Cerro Tololo-DECam MPS 512230
2014 04 24.39390 15 01 57.24 -18 37 13.9 20.8   W84 – Cerro Tololo-DECam MPS 788994
2014 04 24.39716 15 01 57.08 -18 37 12.9   W84 – Cerro Tololo-DECam MPS 788994
2014 04 24.40038 15 01 56.90 -18 37 11.9   W84 – Cerro Tololo-DECam MPS 788994
2014 04 24.40362 15 01 56.75 -18 37 11.0   W84 – Cerro Tololo-DECam MPS 788994
2014 04 24.40687 15 01 56.58 -18 37 10.0   W84 – Cerro Tololo-DECam MPS 788994
2014 04 26.36051 15 00 17.51 -18 27 30.8 20.8 V W84 – Cerro Tololo-DECam MPS 788994
2014 04 26.36368 15 00 17.33 -18 27 29.9   W84 – Cerro Tololo-DECam MPS 788994
2014 04 26.36690 15 00 17.16 -18 27 28.9   W84 – Cerro Tololo-DECam MPS 788994
2014 04 26.37011 15 00 17.00 -18 27 27.8   W84 – Cerro Tololo-DECam MPS 788994
2014 04 29.40688 14 57 39.128 -18 11 58.47 20.6 w F51 – Pan-STARRS 1, Haleakala MPS 513589
